www.pogodaiklimat.ru

Погода и климат >> Архив погоды >> Мадагаскар >> Mahajanga


ПОГОДА в Mahajanga

  • Прогноз погоды в Mahajanga
  • Монитор погоды в Mahajanga
  • Климат города

АРХИВ ПОГОДЫ в Mahajanga

Время (UTC), дата Ветер
(напр.,м/с)
 
Видим.   Явления Облачность Т
(С)
Тd
(С)
f
(%)
Тe
(С)
Тes
(С)
Комфортность P
(гПа)
Po
(гПа)
Тmin
(С)
Tmax
(С)
R
(мм)
R24
(мм)
S
(см)
09 11.08 ЮВ 7 40 км 1/1 700 м
[Cu hum]
+31.2 +13.3 34 +32 +36 жарко 1021.2 1019.1
12 11.08 В 8 40 км ясно +33.0 +12.6 29 +33 +35 жарко 1019.1 1017.0
15 11.08 ЮВ 5 35 км ясно +30.0 +12.7 35 +31 +31 жарко 1020.0 1017.8 +33.8
18 11.08 ЮВ 4 30 км ясно +27.3 +12.4 40 +29 +29 жарко 1021.7 1019.6 +33.8
21 11.08 ЮВ 2 30 км ясно +24.8 +14.6 53 +27 +27 жарко 1022.5 1020.4
00 12.08 штиль 0 30 км ясно +21.2 +15.7 71 +24 +24 комфорт 1021.3 1019.2
03 12.08 штиль 0 40 км ясно +18.2 +15.2 83 +18 +18 1021.4 1019.3
06 12.08 ЮВ 6 40 км ясно +27.7 +15.3 47 +31 +34 душно 1022.0 1019.8 +17.9 +33.8
09 12.08 В 6 40 км 1/1 700 м
[Cu hum]
+31.3 +15.2 38 +34 +39 душно 1020.3 1018.1
12 12.08 ЮВ 7 40 км ясно +34.4 +12.6 27 +35 +37 очень
жарко
1017.4 1015.3
15 12.08 ЮВ 5 30 км ясно +30.3 +12.0 32 +31 +31 жарко 1018.5 1016.4 +34.8
18 12.08 ЮВ 3 30 км ясно +26.0 +13.3 45 +28 +28 жарко 1021.5 1019.4 +34.9
21 12.08 ЮВ 3 30 км ясно +24.3 +17.1 64 +28 +28 душно 1021.9 1019.8
00 13.08 ЮВ 3 30 км ясно +21.8 +16.7 73 +26 +26 душно 1020.8 1018.7
03 13.08 штиль 0 35 км ясно +20.8 +14.9 69 +23 +23 комфорт 1020.8 1018.6
06 13.08 ЮВ 7 40 км ясно +27.2 +15.1 48 +30 +32 душно 1021.6 1019.4 +20.0 +34.8
09 13.08 ЮВ 7 40 км 3/3 700 м
[Cu med, cong]
+31.0 +14.4 36 +33 +36 душно 1020.0 1017.9
12 13.08 ЮВ 7 40 км 1/1 700 м
[Cu hum]
+33.0 +13.8 31 +34 +36 очень
жарко
1016.4 1014.3
15 13.08 ЮВ 3 35 км 1/1 1200 м
[Sc]
+30.0 +13.4 36 +31 +31 жарко 1018.9 1016.8 +33.4
18 13.08 ЮВ 4 30 км 1/1 1200 м
[Sc]
+26.1 +13.4 45 +28 +28 жарко 1021.3 1019.1 +33.4
21 13.08 ЮВ 3 30 км 1/1 1200 м
[Sc]
+23.0 +12.6 52 +26 +26 жарко 1021.6 1019.5
00 14.08 ЮВ 2 30 км 1/1 1200 м
[Sc]
+20.0 +13.0 64 +22 +22 комфорт 1020.4 1018.3
03 14.08 ЮВ 1 30 км 1/1 1200 м
[Sc]
+20.3 +13.6 65 +24 +24 комфорт 1020.2 1018.1
06 14.08 ЮВ 6 40 км 4/1 1200 м
[Sc Ac trans]
+26.4 +13.8 46 +29 +31 жарко 1021.6 1019.5 +19.8 +33.4
09 14.08 ЮВ 5 40 км 1/1 700 м
[Cu Sc Ac trans]
+29.7 +13.4 37 +31 +39 жарко 1020.1 1018.0
12 14.08 ЮВ 5 40 км 1/1 700 м
[Cu hum]
+32.3 +12.7 30 +33 +36 жарко 1018.1 1016.0
15 14.08 С 2 40 км 1/1 1200 м
[Sc diur, vesp Ac trans]
+26.5 +17.9 59 +31 +31 душно 1019.0 1016.9 +32.5
18 14.08 ЮВ 3 30 км 1/1 1200 м
[Sc Ac trans]
+25.4 +14.0 49 +28 +28 жарко 1021.2 1019.1 +32.5
21 14.08 ЮВ 3 30 км 1/1 1200 м
[Sc Ac trans]
+24.1 +12.1 47 +26 +26 жарко 1021.6 1019.5
00 15.08 ЮВ 4 30 км 1/1 1200 м
[Sc Ac trans]
+22.6 +14.1 59 +26 +26 жарко 1020.7 1018.6
03 15.08 ЮВ 3 35 км 3/3 1200 м
[Sc Ac trans]
+21.5 +13.8 62 +24 +24 комфорт 1021.4 1019.3
06 15.08 ЮВ 7 40 км 1/0
[Ac trans]
+26.4 +14.5 48 +29 +31 жарко 1022.4 1020.3 +20.5 +32.5
09 15.08 ЮВ 7 40 км 1/1 700 м
[Cu hum Ac trans]
+30.2 +15.4 41 +33 +37 душно 1020.1 1018.0
12 15.08 40 км 4/4 700 м
[Cu Sc]
+31.5 +13.8 34 1017.8 1015.7
15 15.08 В 3 35 км 1/1 1200 м
[St Ac trans]
+29.7 +13.0 36 +31 +31 жарко 1018.2 1016.0 +31.7
18 15.08 В 5 30 км 1/1 1200 м
[Sc]
+26.0 +12.2 42 +27 +27 жарко 1020.8 1018.6 +31.7
21 15.08 В 5 30 км 1/1 1200 м
[Sc]
+24.0 +15.1 57 +27 +27 жарко 1021.3 1019.2
00 16.08 В 3 30 км 1/1 1200 м
[Sc]
+21.9 +15.4 67 +26 +26 душно 1020.5 1018.4
03 16.08 В 4 40 км 9/4 1200 м
[Sc Ac und]
+23.0 +14.6 59 +27 +27 душно 1021.4 1019.3
06 16.08 ЮВ 5 40 км ясно +25.7 +12.4 44 +27 +32 жарко 1022.6 1020.5 +21.3 +31.7
09 16.08 ЮВ 6 40 км 1/1 700 м
[Cu hum]
+30.0 +10.5 30 +30 +36 жарко 1020.6 1018.5
12 16.08 ЮВ 5 40 км 3/3 700 м
[Cu med, cong]
+32.6 +5.3 18 +30 +33 жарко 1017.5 1015.4
15 16.08 СЗ 2 35 км 4/3 1200 м
[Sc Ac trans]
+27.8 +14.0 43 +30 +30 жарко 1017.9 1015.8 +33.2
18 16.08 ЮВ 1 30 км ясно +25.0 +13.5 49 +27 +27 жарко 1019.6 1017.5 +33.2
21 16.08 ЮВ 3 30 км ясно +24.1 +14.2 54 +27 +27 жарко 1020.2 1018.1
00 17.08 ЮВ 3 30 км ясно +21.2 +12.0 56 +23 +23 комфорт 1019.2 1017.1
03 17.08 ЮВ 3 35 км ясно +19.6 +11.7 60 +21 +21 комфорт 1019.3 1017.2
06 17.08 ЮВ 6 40 км ясно +26.2 +10.9 38 +27 +30 жарко 1020.0 1017.9 +19.1 +33.2
09 17.08 ЮВ 6 40 км 1/1 700 м
[Cu hum]
+31.5 +9.6 26 +31 +37 жарко 1018.4 1016.3
12 17.08 ЮВ 4 40 км 4/4 700 м
[Sc diur, vesp]
+32.0 +11.2 28 +32 +35 жарко 1016.0 1013.8
15 17.08 СЗ 1 35 км 3/3 700 м
[Sc diur, vesp]
+27.4 +19.1 61 +33 +33 очень
душно
1016.9 1014.8 +33.2
18 17.08 ЮВ 3 40 км 1/1 1200 м
[Sc]
+25.8 +15.3 52 +29 +29 душно 1018.0 1015.9 +33.2
21 17.08 ЮВ 3 30 км 5/4 1200 м
[Sc Ac trans]
+23.3 +12.8 52 +26 +26 жарко 1018.4 1016.3
00 18.08 ЮВ 3 30 км 3/3 1200 м
[Sc]
+20.6 +14.5 68 +24 +24 комфорт 1017.4 1015.3
03 18.08 ЮВ 2 30 км 1/1 1200 м
[Sc]
+20.2 +13.8 67 +23 +23 комфорт 1017.8 1015.7

 

Местоположение метеостанции Mahajanga (Мадагаскар): широта -15.66 долгота 46.35 высота над уровнем моря 18 м.

В архиве по умолчанию представлена погода в Mahajanga за последнюю неделю. Архивные данные за месяц целиком и за предыдущие месяцы, начиная с января 2011 года, Вы можете получить, выбрав интересующий диапазон дат из раскрывающегося списка и нажав кнопку "Ввод!".


*Определитесь, кто Вы:
робот инопланетянин человек

Внимание! Время в таблицах - всемирное. Для получения местного времени необходимо прибавить поправку, которая в Mahajanga равна 3 ч.

Смотрите также архив погоды в соседних городах и на ближайших метеорологических станциях:

Погода в Antsohihy (Мадагаскар) (195 км)
Погода в Besalampy (Мадагаскар) (234 км)
Погода в Ambohitsilaozana (Мадагаскар) (317 км)
Погода в Fascene (Мадагаскар) (337 км)
Погода в Dzaoudzi (Коморские Острова) (338 км)
Погода в Maintirano (Мадагаскар) (363 км)
Погода в Antananarivo Airport (Мадагаскар) (369 км)
Погода в Antananarivo (Мадагаскар) (377 км)
Погода в Nosy Boraha (Мадагаскар) (403 км)
Погода в Juan De Nova Island (Реюньон) (417 км)

Пояснения к столбцам:

Ветер - указаны скорость ветра в м/с - средняя за 10 мин, порывы в срок и между сроками (в фигурных скобках) и направление, откуда дует ветер: С - северный, СВ - северо-восточный, В - восточный, ЮВ - юго-восточный, Ю - южный, ЮЗ - юго-западный, З - западный, СЗ - северо-западный.
Видимость - горизонтальная дальность видимости в метрах или километрах. При видимости от 1 до 10 км при отсутствии осадков обычно наблюдается дымка, при ухудшении видимости до 1 км и менее - туман. В сухую погоду видимость может ухудшаться дымом, пылью или мглою.
Явления - указаны атмосферные явления, наблюдавшиеся в срок или в последний час перед сроком; фигурными скобками обозначены явления, наблюдавшиеся между сроками (за 1-3 часа до срока); квадратными скобками обозначены град или гололедные отложения с указанием их диаметра в мм.
Облачность - указаны через наклонную черту общая и нижняя облачность в баллах и высота нижней границы облаков в метрах; квадратными скобками обозначены формы облаков: Ci - перистые, Cs - перисто-слоистые, Cc - перисто-кучевые, Ac - высококучевые, As - высокослоистые, Sc - слоисто-кучевые, Ns - слоисто-дождевые, Cu - кучевые, Cb - кучево-дождевые. Подробнее классификацию облаков см. в Атласе облаков (PDF).
T - Температура воздуха - температура, измеренная на высоте 2 м над землей.
Td - Температура точки росы - температура, при понижении до которой содержащийся в воздухе водяной пар достигнет насыщения.
f - Относительная влажность воздуха - влажноcть воздуха, измеренная на высоте 2 м над землей.
Te - Эффективная температура - температура, которую ощущает одетый по сезону человек в тени. Характеристика душности погоды. При расчете учитывается влияние влажности воздуха и скорости ветра на теплоощущения человека.
Tes - Эффективная температура на солнце - температура, которую ощущает человек, с поправкой на солнечный нагрев. Характеристика знойности погоды. Зависит от высоты солнца над горизонтом, облачности и скорости ветра. Ночью, в пасмурную погоду, а также при ветре 12 м/с и более поправка равна нулю.
P - Атмосферное давление - приведенное к уровню моря атмосферное давление.
Po - Атмосферное давление - измеренное на уровне метеостанции атмосферное давление.
Tmin - Минимальная температура - минимум температуры воздуха на высоте 2 м над землей.
Tmax - Максимальная температура - максимум температуры воздуха на высоте 2 м над землей.
R - Количество осадков - Количество выпавших осадков за период времени, мм. При наведении курсора мыши на число - период времени, за который выпало указанное количество осадков.
R24 - Количество осадков - Количество выпавших осадков за 24 часа, мм.
S - Снежный покров - Высота снежного покрова, см. При наведении курсора мыши на число - состояние снежного покрова и степень покрытия местности в баллах.